Tracking 26935 objects as of 4-Feb-2023
HD Live streaming from Space Station
objects crossing your sky now

COSMOS 2209

Track COSMOS 2209 now!
COSMOS 2209 is classified as:


NORAD ID: 22112
Int'l Code: 1992-059A
Perigee: 35,787.6 km
Apogee: 35,840.8 km
Inclination: 14.4 °
Period: 1,437.1 minutes
Semi major axis: 42185 km
RCS: 5.0119 m2 (large)
Launch date: September 10, 1992
Source: Commonwealth of Independent States (former USSR) (CIS)
Launch site: TYURATAM MISSILE AND SPACE COMPLEX (TTMTR)
Your satellite tracking list
Your tracking list is empty




NASA's NSSDC Master Catalog

Two Line Element Set (TLE):
1 22112U 92059A   23035.04857817  .00000110  00000-0  00000+0 0  9997
2 22112  14.3997 351.9725 0006308 332.8373  33.8641  1.00198888111327
Source of the keplerian elements: AFSPC